Dades meteomassalio
Diari Summary for Gener 1, 2017 Units:  Metric    English   Both
« Previous Day
Next Day »
Diari Semanal Mensual Anual Personalitzat
  Maxima: Minima: Mijana:
Temperatura: 0.8 °C -1.1 °C 0.3 °C
Rosada: 0.3 °C -1.8 °C -0.4 °C
Humitat: 96 % 95 % 96 %
Velocitat del vent: 0.0 km/h 0.0 km/h 0 km/h
Racha vent: 0.0 km/h - -
Vent:- - North
Pressio: 1034.8 hPa 1026.3 hPa -
Pluja: 0.5 mm    
Historical Graphs
 
 
Tabular Data for Gener 1, 2017
Time Temperature Dew Point Pressure Wind Wind Speed Wind Gust Humidity Rainfall Rate (Hourly) solar Conditions
00:00 0.6 °C -0.1 °C 1034.8 hPa Calm     95 % 0.0 mm 0.0 W/m2 RA
00:05 0.6 °C 0.1 °C 1034.8 hPa Calm     96 % 0.0 mm 0.0 W/m2 CLR
00:10 0.6 °C -0.1 °C 1034.8 hPa Calm     95 % 0.0 mm 0.0 W/m2 CLR
00:15 0.6 °C -0.2 °C 1034.4 hPa Calm     95 % 0.0 mm 0.0 W/m2 CLR
00:20 0.6 °C -0.1 °C 1034.4 hPa Calm     95 % 0.0 mm 0.0 W/m2 CLR
00:25 0.6 °C 0.1 °C 1034.4 hPa Calm     96 % 0.0 mm 0.0 W/m2 CLR
00:30 0.6 °C 0.1 °C 1034.4 hPa Calm     96 % 0.0 mm 0.0 W/m2 CLR
00:35 0.7 °C 0.1 °C 1034.4 hPa Calm     96 % 0.0 mm 0.0 W/m2 CLR
00:40 0.7 °C 0.1 °C 1034.4 hPa Calm     96 % 0.0 mm 0.0 W/m2 CLR
00:45 0.6 °C 0.1 °C 1034.4 hPa Calm     96 % 0.0 mm 0.0 W/m2 CLR
00:50 0.7 °C 0.1 °C 1034.1 hPa Calm     96 % 0.0 mm 0.0 W/m2 CLR
00:55 0.7 °C 0.1 °C 1034.1 hPa Calm     96 % 0.0 mm 0.0 W/m2 CLR
01:01 0.7 °C 0.1 °C 1034.1 hPa Calm     96 % 0.0 mm 0.0 W/m2 CLR
01:06 0.7 °C 0.1 °C 1034.1 hPa Calm     96 % 0.0 mm 0.0 W/m2 CLR
01:11 0.6 °C 0.1 °C 1033.7 hPa Calm     96 % 0.0 mm 0.0 W/m2 CLR
01:16 0.6 °C -0.1 °C 1034.1 hPa Calm     95 % 0.0 mm 0.0 W/m2 CLR
01:21 0.6 °C -0.1 °C 1034.1 hPa Calm     95 % 0.0 mm 0.0 W/m2 CLR
01:26 0.6 °C -0.2 °C 1033.7 hPa Calm     95 % 0.0 mm 0.0 W/m2 CLR
01:31 0.6 °C -0.2 °C 1033.7 hPa Calm     95 % 0.0 mm 0.0 W/m2 CLR
01:36 0.5 °C -0.2 °C 1033.7 hPa Calm     95 % 0.0 mm 0.0 W/m2 CLR
01:41 0.6 °C -0.2 °C 1033.7 hPa Calm     95 % 0.0 mm 0.0 W/m2 CLR
01:46 0.6 °C -0.2 °C 1033.7 hPa Calm     95 % 0.0 mm 0.0 W/m2 CLR
01:51 0.6 °C -0.2 °C 1033.7 hPa Calm     95 % 0.0 mm 0.0 W/m2 CLR
01:56 0.6 °C -0.2 °C 1033.4 hPa Calm     95 % 0.0 mm 0.0 W/m2 CLR
02:01 0.6 °C 0.1 °C 1033.4 hPa Calm     96 % 0.0 mm 0.0 W/m2 CLR
02:06 0.6 °C 0.1 °C 1033.4 hPa Calm     96 % 0.0 mm 0.0 W/m2 CLR
02:11 0.6 °C 0.1 °C 1033.4 hPa Calm     96 % 0.0 mm 0.0 W/m2 CLR
02:16 0.6 °C 0.1 °C 1033.4 hPa Calm     96 % 0.0 mm 0.0 W/m2 CLR
02:21 0.6 °C 0.1 °C 1033.4 hPa Calm     96 % 0.0 mm 0.0 W/m2 CLR
02:26 0.6 °C 0.1 °C 1033.4 hPa Calm     96 % 0.0 mm 0.0 W/m2 CLR
02:31 0.7 °C 0.1 °C 1033.4 hPa Calm     96 % 0.0 mm 0.0 W/m2 CLR
02:36 0.7 °C 0.1 °C 1033.1 hPa Calm     96 % 0.0 mm 0.0 W/m2 CLR
02:41 0.7 °C 0.1 °C 1033.1 hPa Calm     96 % 0.0 mm 0.0 W/m2 CLR
02:46 0.7 °C 0.1 °C 1033.1 hPa Calm     96 % 0.0 mm 0.0 W/m2 CLR
02:51 0.7 °C 0.1 °C 1033.1 hPa Calm     96 % 0.0 mm 0.0 W/m2 CLR
02:56 0.7 °C 0.1 °C 1033.1 hPa Calm     96 % 0.0 mm 0.0 W/m2 CLR
03:01 0.7 °C 0.1 °C 1033.1 hPa Calm     96 % 0.0 mm 0.0 W/m2 CLR
03:06 0.7 °C 0.1 °C 1033.1 hPa Calm     96 % 0.0 mm 0.0 W/m2 CLR
03:11 0.7 °C 0.1 °C 1033.1 hPa Calm     96 % 0.0 mm 0.0 W/m2 CLR
03:16 0.7 °C 0.1 °C 1033.1 hPa Calm     96 % 0.0 mm 0.0 W/m2 CLR
03:21 0.7 °C 0.1 °C 1033.1 hPa Calm     96 % 0.0 mm 0.0 W/m2 CLR
03:26 0.7 °C 0.2 °C 1032.7 hPa Calm     96 % 0.0 mm 0.0 W/m2 CLR
03:31 0.7 °C 0.2 °C 1032.7 hPa Calm     96 % 0.0 mm 0.0 W/m2 CLR
03:36 0.7 °C 0.2 °C 1032.7 hPa Calm     96 % 0.0 mm 0.0 W/m2 CLR
03:41 0.6 °C 0.1 °C 1032.7 hPa Calm     96 % 0.0 mm 0.0 W/m2 CLR
03:46 0.6 °C 0.1 °C 1032.7 hPa Calm     96 % 0.0 mm 0.0 W/m2 CLR
03:51 0.6 °C -0.2 °C 1032.7 hPa Calm     95 % 0.0 mm 0.0 W/m2 CLR
03:56 0.6 °C -0.1 °C 1032.7 hPa Calm     95 % 0.0 mm 0.0 W/m2 CLR
04:01 0.6 °C 0.1 °C 1032.4 hPa Calm     96 % 0.0 mm 0.0 W/m2 CLR
04:06 0.7 °C 0.1 °C 1032.4 hPa Calm     96 % 0.0 mm 0.0 W/m2 CLR
04:11 0.7 °C 0.1 °C 1032.4 hPa Calm     96 % 0.0 mm 0.0 W/m2 CLR
04:16 0.6 °C 0.1 °C 1032.1 hPa Calm     96 % 0.0 mm 0.0 W/m2 CLR
04:21 0.6 °C 0.1 °C 1032.1 hPa Calm     96 % 0.0 mm 0.0 W/m2 CLR
04:26 0.6 °C -0.1 °C 1032.1 hPa Calm     95 % 0.0 mm 0.0 W/m2 CLR
04:31 0.6 °C -0.2 °C 1032.1 hPa Calm     95 % 0.0 mm 0.0 W/m2 CLR
04:36 0.6 °C -0.2 °C 1031.7 hPa Calm     95 % 0.0 mm 0.0 W/m2 CLR
04:41 0.5 °C -0.2 °C 1031.7 hPa Calm     95 % 0.0 mm 0.0 W/m2 CLR
04:46 0.5 °C -0.2 °C 1031.7 hPa Calm     95 % 0.0 mm 0.0 W/m2 CLR
04:51 0.4 °C -0.3 °C 1031.7 hPa Calm     95 % 0.0 mm 0.0 W/m2 CLR
04:56 0.4 °C -0.2 °C 1031.4 hPa Calm     96 % 0.0 mm 0.0 W/m2 CLR
05:01 0.4 °C -0.2 °C 1031.4 hPa Calm     96 % 0.0 mm 0.0 W/m2 CLR
05:06 0.4 °C -0.2 °C 1031.4 hPa Calm     96 % 0.0 mm 0.0 W/m2 CLR
05:11 0.3 °C -0.3 °C 1031.4 hPa Calm     96 % 0.0 mm 0.0 W/m2 CLR
05:16 0.2 °C -0.5 °C 1031.4 hPa Calm     95 % 0.0 mm 0.0 W/m2 CLR
05:21 0.2 °C -0.5 °C 1031.0 hPa Calm     95 % 0.0 mm 0.0 W/m2 CLR
05:26 0.1 °C -0.6 °C 1031.4 hPa Calm     95 % 0.0 mm 0.0 W/m2 CLR
05:31 0.1 °C -0.6 °C 1031.4 hPa Calm     95 % 0.0 mm 0.0 W/m2 CLR
05:36 0.2 °C -0.6 °C 1031.4 hPa Calm     95 % 0.0 mm 0.0 W/m2 CLR
05:41 0.2 °C -0.6 °C 1031.0 hPa Calm     95 % 0.0 mm 0.0 W/m2 CLR
05:46 0.2 °C -0.6 °C 1031.0 hPa Calm     95 % 0.0 mm 0.0 W/m2 CLR
05:51 0.2 °C -0.5 °C 1031.0 hPa Calm     95 % 0.0 mm 0.0 W/m2 CLR
05:56 0.2 °C -0.5 °C 1031.0 hPa Calm     95 % 0.0 mm 0.0 W/m2 CLR
06:01 0.2 °C -0.5 °C 1031.0 hPa Calm     95 % 0.0 mm 0.0 W/m2 CLR
06:06 0.2 °C -0.6 °C 1031.0 hPa Calm     95 % 0.0 mm 0.0 W/m2 CLR
06:11 0.1 °C -0.6 °C 1031.0 hPa Calm     95 % 0.0 mm 0.0 W/m2 CLR
06:16 0.1 °C -0.5 °C 1031.0 hPa Calm     96 % 0.0 mm 0.0 W/m2 CLR
06:21 0.0 °C -0.6 °C 1031.0 hPa Calm     96 % 0.0 mm 0.0 W/m2 CLR
06:26 0.0 °C -0.6 °C 1031.0 hPa Calm     96 % 0.0 mm 0.0 W/m2 CLR
06:31 0.0 °C -0.6 °C 1031.0 hPa Calm     96 % 0.0 mm 0.0 W/m2 CLR
06:36 -0.1 °C -0.6 °C 1031.0 hPa Calm     96 % 0.0 mm 0.0 W/m2 CLR
06:41 -0.1 °C -0.6 °C 1031.0 hPa Calm     96 % 0.0 mm 0.0 W/m2 CLR
06:46 -0.1 °C -0.8 °C 1031.0 hPa Calm     95 % 0.0 mm 0.0 W/m2 CLR
06:51 -0.1 °C -0.8 °C 1031.0 hPa Calm     95 % 0.0 mm 0.0 W/m2 CLR
06:56 -0.1 °C -0.8 °C 1031.0 hPa Calm     95 % 0.0 mm 0.0 W/m2 CLR
07:01 -0.2 °C -0.9 °C 1031.0 hPa Calm     95 % 0.0 mm 0.0 W/m2 CLR
07:06 -0.2 °C -0.9 °C 1031.0 hPa Calm     95 % 0.0 mm 0.0 W/m2 CLR
07:11 -0.2 °C -0.9 °C 1031.0 hPa Calm     95 % 0.0 mm 0.0 W/m2 CLR
07:16 -0.2 °C -0.9 °C 1031.0 hPa Calm     95 % 0.0 mm 0.0 W/m2 CLR
07:21 -0.1 °C -0.8 °C 1030.7 hPa Calm     95 % 0.0 mm 0.0 W/m2 CLR
07:26 -0.1 °C -0.8 °C 1030.7 hPa Calm     95 % 0.0 mm 0.0 W/m2 CLR
07:31 -0.1 °C -0.8 °C 1030.7 hPa Calm     95 % 0.0 mm 0.0 W/m2 CLR
07:36 -0.1 °C -0.8 °C 1030.7 hPa Calm     95 % 0.0 mm 0.0 W/m2 CLR
07:41 -0.1 °C -0.8 °C 1030.7 hPa Calm     95 % 0.0 mm 0.0 W/m2 CLR
07:46 -0.3 °C -0.8 °C 1030.7 hPa Calm     96 % 0.0 mm 0.0 W/m2 CLR
07:51 -0.4 °C -1.2 °C 1030.7 hPa Calm     95 % 0.0 mm 0.0 W/m2 CLR
07:56 -0.5 °C -1.2 °C 1030.7 hPa Calm     95 % 0.0 mm 0.0 W/m2 CLR
08:01 -0.5 °C -1.2 °C 1030.7 hPa Calm     95 % 0.0 mm 0.0 W/m2 CLR
08:06 -0.5 °C -1.2 °C 1031.0 hPa Calm     95 % 0.0 mm 0.0 W/m2 CLR
08:11 -0.5 °C -1.2 °C 1031.0 hPa Calm     95 % 0.0 mm 0.0 W/m2 CLR
08:16 -0.5 °C -1.2 °C 1031.0 hPa Calm     95 % 0.0 mm 0.0 W/m2 CLR
08:21 -0.6 °C -1.1 °C 1031.0 hPa Calm     96 % 0.0 mm 0.0 W/m2 CLR
08:26 -0.6 °C -1.2 °C 1031.0 hPa Calm     96 % 0.0 mm 0.0 W/m2 OVC
08:31 -0.6 °C -1.2 °C 1030.7 hPa Calm     96 % 0.0 mm 0.0 W/m2 OVC
08:36 -0.7 °C -1.4 °C 1030.7 hPa Calm     95 % 0.0 mm 5.0 W/m2 OVC
08:41 -0.7 °C -1.4 °C 1030.7 hPa Calm     95 % 0.0 mm 5.0 W/m2 OVC
08:46 -0.7 °C -1.4 °C 1030.7 hPa Calm     95 % 0.0 mm 7.0 W/m2 BKN
08:51 -0.7 °C -1.4 °C 1030.7 hPa Calm     95 % 0.0 mm 9.0 W/m2 BKN
08:56 -0.7 °C -1.4 °C 1030.7 hPa Calm     95 % 0.0 mm 11.0 W/m2 BKN
09:01 -0.7 °C -1.4 °C 1030.7 hPa Calm     95 % 0.0 mm 12.0 W/m2 BKN
09:06 -0.7 °C -1.4 °C 1030.7 hPa Calm     95 % 0.0 mm 16.0 W/m2 BKN
09:12 -0.8 °C -1.5 °C 1030.7 hPa Calm     95 % 0.0 mm 18.0 W/m2 BKN
09:17 -0.8 °C -1.6 °C 1030.7 hPa Calm     95 % 0.0 mm 19.0 W/m2 BKN
09:22 -0.9 °C -1.6 °C 1030.7 hPa Calm     95 % 0.0 mm 23.0 W/m2 BKN
09:27 -0.8 °C -1.6 °C 1030.7 hPa Calm     95 % 0.0 mm 25.0 W/m2 BKN
09:32 -0.9 °C -1.6 °C 1030.7 hPa Calm     95 % 0.0 mm 28.0 W/m2 BKN
09:37 -0.9 °C -1.6 °C 1030.7 hPa Calm     95 % 0.0 mm 33.0 W/m2 BKN
09:42 -1.0 °C -1.7 °C 1030.7 hPa Calm     95 % 0.0 mm 35.0 W/m2 BKN
09:47 -1.0 °C -1.7 °C 1030.7 hPa Calm     95 % 0.0 mm 35.0 W/m2 BKN
09:52 -1.0 °C -1.7 °C 1030.7 hPa Calm     95 % 0.0 mm 39.0 W/m2 BKN
09:57 -1.0 °C -1.7 °C 1030.7 hPa Calm     95 % 0.0 mm 42.0 W/m2 BKN
10:02 -1.1 °C -1.8 °C 1030.7 hPa Calm     95 % 0.0 mm 46.0 W/m2 BKN
10:07 -1.1 °C -1.8 °C 1030.7 hPa Calm     95 % 0.0 mm 49.0 W/m2 BKN
10:12 -1.1 °C -1.8 °C 1030.7 hPa Calm     95 % 0.0 mm 60.0 W/m2 BKN
10:17 -1.1 °C -1.8 °C 1030.7 hPa Calm     95 % 0.0 mm 70.0 W/m2 BKN
10:22 -1.1 °C -1.8 °C 1030.7 hPa Calm     95 % 0.0 mm 72.0 W/m2 BKN
10:27 -1.1 °C -1.8 °C 1030.7 hPa Calm     95 % 0.0 mm 76.0 W/m2 BKN
10:32 -1.0 °C -1.7 °C 1030.7 hPa Calm     95 % 0.0 mm 74.0 W/m2 BKN
10:37 -1.1 °C -1.8 °C 1030.7 hPa Calm     95 % 0.0 mm 76.0 W/m2 BKN
10:42 -1.1 °C -1.8 °C 1030.7 hPa Calm     95 % 0.0 mm 70.0 W/m2 BKN
10:47 -1.0 °C -1.7 °C 1030.7 hPa Calm     95 % 0.0 mm 56.0 W/m2 BKN
10:52 -1.1 °C -1.8 °C 1030.7 hPa Calm     95 % 0.0 mm 98.0 W/m2 BKN
10:57 -1.0 °C -1.7 °C 1030.7 hPa Calm     95 % 0.0 mm 105.0 W/m2 BKN
11:02 -1.0 °C -1.7 °C 1030.7 hPa Calm     95 % 0.0 mm 109.0 W/m2 BKN
11:07 -0.9 °C -1.6 °C 1030.7 hPa Calm     95 % 0.0 mm 104.0 W/m2 BKN
11:12 -0.8 °C -1.5 °C 1030.4 hPa Calm     95 % 0.0 mm 105.0 W/m2 BKN
11:17 -0.7 °C -1.4 °C 1030.4 hPa Calm     95 % 0.0 mm 98.0 W/m2 BKN
11:22 -0.6 °C -1.3 °C 1030.4 hPa Calm     95 % 0.0 mm 100.0 W/m2 BKN
11:27 -0.6 °C -1.3 °C 1030.4 hPa Calm     95 % 0.0 mm 105.0 W/m2 BKN
11:32 -0.5 °C -1.2 °C 1030.4 hPa Calm     95 % 0.3 mm 93.0 W/m2 RA
11:37 -0.4 °C -1.2 °C 1030.4 hPa Calm     95 % 0.3 mm 97.0 W/m2 BKN
11:42 -0.4 °C -1.2 °C 1030.0 hPa Calm     95 % 0.3 mm 105.0 W/m2 BKN
11:47 -0.4 °C -1.2 °C 1030.0 hPa Calm     95 % 0.3 mm 105.0 W/m2 BKN
11:52 -0.3 °C -1.1 °C 1030.0 hPa Calm     95 % 0.3 mm 107.0 W/m2 BKN
11:57 -0.3 °C -1.0 °C 1030.0 hPa Calm     95 % 0.3 mm 93.0 W/m2 BKN
12:02 -0.2 °C -0.9 °C 1030.0 hPa Calm     95 % 0.3 mm 91.0 W/m2 BKN
12:07 -0.1 °C -0.8 °C 1029.7 hPa Calm     95 % 0.3 mm 95.0 W/m2 BKN
12:12 0.0 °C -0.7 °C 1029.7 hPa Calm     95 % 0.3 mm 100.0 W/m2 BKN
12:17 0.1 °C -0.4 °C 1029.7 hPa Calm     96 % 0.3 mm 91.0 W/m2 BKN
12:22 0.1 °C -0.5 °C 1029.3 hPa Calm     96 % 0.3 mm 93.0 W/m2 BKN
12:27 0.1 °C -0.5 °C 1029.3 hPa Calm     96 % 0.3 mm 93.0 W/m2 BKN
12:32 0.1 °C -0.5 °C 1029.3 hPa Calm     96 % 0.0 mm 100.0 W/m2 BKN
12:37 0.1 °C -0.4 °C 1029.0 hPa Calm     96 % 0.0 mm 105.0 W/m2 BKN
12:42 0.2 °C -0.4 °C 1029.0 hPa Calm     96 % 0.0 mm 93.0 W/m2 BKN
12:47 0.2 °C -0.4 °C 1029.0 hPa Calm     96 % 0.0 mm 97.0 W/m2 BKN
12:52 0.2 °C -0.4 °C 1028.7 hPa Calm     96 % 0.0 mm 98.0 W/m2 BKN
12:57 0.1 °C -0.4 °C 1028.7 hPa Calm     96 % 0.0 mm 104.0 W/m2 BKN
13:02 0.1 °C -0.4 °C 1028.7 hPa Calm     96 % 0.0 mm 105.0 W/m2 BKN
13:07 0.2 °C -0.5 °C 1028.3 hPa Calm     95 % 0.0 mm 100.0 W/m2 BKN
13:12 0.2 °C -0.5 °C 1028.3 hPa Calm     95 % 0.0 mm 93.0 W/m2 BKN
13:17 0.3 °C -0.4 °C 1028.3 hPa Calm     95 % 0.0 mm 90.0 W/m2 BKN
13:22 0.3 °C -0.4 °C 1028.3 hPa Calm     95 % 0.0 mm 88.0 W/m2 BKN
13:27 0.3 °C -0.4 °C 1028.3 hPa Calm     95 % 0.0 mm 88.0 W/m2 BKN
13:32 0.3 °C -0.4 °C 1028.0 hPa Calm     95 % 0.0 mm 91.0 W/m2 BKN
13:37 0.3 °C -0.4 °C 1028.0 hPa Calm     95 % 0.0 mm 91.0 W/m2 BKN
13:42 0.3 °C -0.4 °C 1028.0 hPa Calm     95 % 0.0 mm 98.0 W/m2 BKN
13:47 0.3 °C -0.2 °C 1028.0 hPa Calm     96 % 0.0 mm 100.0 W/m2 BKN
13:52 0.3 °C -0.2 °C 1027.7 hPa Calm     96 % 0.0 mm 91.0 W/m2 BKN
13:58 0.4 °C -0.2 °C 1027.7 hPa Calm     96 % 0.0 mm 97.0 W/m2 BKN
14:03 0.4 °C -0.1 °C 1027.7 hPa Calm     96 % 0.0 mm 84.0 W/m2 BKN
14:08 0.5 °C -0.2 °C 1027.7 hPa Calm     95 % 0.0 mm 88.0 W/m2 BKN
14:13 0.5 °C -0.1 °C 1027.7 hPa Calm     96 % 0.0 mm 81.0 W/m2 BKN
14:18 0.6 °C -0.2 °C 1027.7 hPa Calm     95 % 0.0 mm 81.0 W/m2 BKN
14:23 0.6 °C -0.1 °C 1027.3 hPa Calm     95 % 0.0 mm 74.0 W/m2 BKN
14:28 0.6 °C 0.1 °C 1027.3 hPa Calm     96 % 0.0 mm 70.0 W/m2 BKN
14:33 0.7 °C 0.1 °C 1027.3 hPa Calm     96 % 0.0 mm 67.0 W/m2 BKN
14:38 0.7 °C 0.1 °C 1027.3 hPa Calm     96 % 0.0 mm 69.0 W/m2 BKN
14:43 0.7 °C 0.1 °C 1027.3 hPa Calm     96 % 0.0 mm 69.0 W/m2 BKN
14:48 0.7 °C 0.2 °C 1027.3 hPa Calm     96 % 0.0 mm 58.0 W/m2 BKN
14:53 0.7 °C 0.2 °C 1027.0 hPa Calm     96 % 0.0 mm 65.0 W/m2 BKN
14:58 0.8 °C 0.2 °C 1027.0 hPa Calm     96 % 0.0 mm 63.0 W/m2 BKN
15:03 0.8 °C 0.2 °C 1027.0 hPa Calm     96 % 0.0 mm 58.0 W/m2 BKN
15:08 0.8 °C 0.2 °C 1027.0 hPa Calm     96 % 0.0 mm 56.0 W/m2 BKN
15:13 0.8 °C 0.3 °C 1027.0 hPa Calm     96 % 0.0 mm 53.0 W/m2 BKN
15:18 0.8 °C 0.3 °C 1027.0 hPa Calm     96 % 0.0 mm 51.0 W/m2 BKN
15:23 0.8 °C 0.3 °C 1027.0 hPa Calm     96 % 0.0 mm 51.0 W/m2 BKN
15:28 0.8 °C 0.2 °C 1027.0 hPa Calm     96 % 0.0 mm 46.0 W/m2 BKN
15:33 0.8 °C 0.2 °C 1027.0 hPa Calm     96 % 0.0 mm 42.0 W/m2 BKN
15:38 0.8 °C 0.2 °C 1027.0 hPa Calm     96 % 0.0 mm 44.0 W/m2 BKN
15:43 0.8 °C 0.3 °C 1026.6 hPa Calm     96 % 0.0 mm 42.0 W/m2 BKN
15:48 0.8 °C 0.3 °C 1026.6 hPa Calm     96 % 0.0 mm 44.0 W/m2 BKN
15:53 0.8 °C 0.3 °C 1026.6 hPa Calm     96 % 0.0 mm 39.0 W/m2 BKN
15:58 0.8 °C 0.2 °C 1027.0 hPa Calm     96 % 0.0 mm 37.0 W/m2 BKN
16:03 0.8 °C 0.2 °C 1027.0 hPa Calm     96 % 0.0 mm 40.0 W/m2 BKN
16:08 0.7 °C 0.2 °C 1026.6 hPa Calm     96 % 0.0 mm 35.0 W/m2 BKN
16:13 0.7 °C 0.2 °C 1027.0 hPa Calm     96 % 0.0 mm 33.0 W/m2 BKN
16:18 0.7 °C 0.2 °C 1026.6 hPa Calm     96 % 0.0 mm 32.0 W/m2 BKN
16:23 0.7 °C 0.2 °C 1026.6 hPa Calm     96 % 0.0 mm 28.0 W/m2 BKN
16:28 0.8 °C 0.2 °C 1026.6 hPa Calm     96 % 0.0 mm 21.0 W/m2 BKN
16:33 0.8 °C 0.2 °C 1026.6 hPa Calm     96 % 0.0 mm 19.0 W/m2 BKN
16:38 0.7 °C 0.2 °C 1026.6 hPa Calm     96 % 0.0 mm 19.0 W/m2 BKN
16:43 0.7 °C 0.1 °C 1026.6 hPa Calm     96 % 0.0 mm 18.0 W/m2 BKN
16:48 0.7 °C 0.2 °C 1026.6 hPa Calm     96 % 0.0 mm 16.0 W/m2 SCT
16:53 0.8 °C 0.2 °C 1026.6 hPa Calm     96 % 0.0 mm 12.0 W/m2 CLR
16:58 0.8 °C 0.2 °C 1026.3 hPa Calm     96 % 0.0 mm 11.0 W/m2 OVC
17:03 0.8 °C 0.2 °C 1026.6 hPa Calm     96 % 0.0 mm 9.0 W/m2 OVC
17:08 0.7 °C 0.2 °C 1026.6 hPa Calm     96 % 0.0 mm 9.0 W/m2 OVC
17:13 0.6 °C 0.1 °C 1026.6 hPa Calm     96 % 0.0 mm 7.0 W/m2 OVC
17:18 0.6 °C 0.1 °C 1026.6 hPa Calm     96 % 0.0 mm 5.0 W/m2 OVC
17:23 0.6 °C 0.1 °C 1026.3 hPa Calm     96 % 0.0 mm 5.0 W/m2 OVC
17:28 0.6 °C -0.1 °C 1026.3 hPa Calm     95 % 0.0 mm 0.0 W/m2 OVC
17:33 0.6 °C -0.1 °C 1026.3 hPa Calm     95 % 0.0 mm 0.0 W/m2 OVC
17:38 0.6 °C -0.1 °C 1026.3 hPa Calm     95 % 0.0 mm 0.0 W/m2 OVC
17:43 0.6 °C 0.1 °C 1026.3 hPa Calm     96 % 0.0 mm 0.0 W/m2 CLR
17:48 0.6 °C 0.1 °C 1026.3 hPa Calm     96 % 0.0 mm 0.0 W/m2 CLR
17:53 0.6 °C 0.1 °C 1026.6 hPa Calm     96 % 0.0 mm 0.0 W/m2 CLR
17:58 0.6 °C -0.2 °C 1026.3 hPa Calm     95 % 0.0 mm 0.0 W/m2 CLR
18:03 0.6 °C -0.2 °C 1026.3 hPa Calm     95 % 0.0 mm 0.0 W/m2 CLR
18:08 0.5 °C -0.2 °C 1026.3 hPa Calm     95 % 0.0 mm 0.0 W/m2 CLR
18:13 0.5 °C -0.2 °C 1026.3 hPa Calm     95 % 0.0 mm 0.0 W/m2 CLR
18:18 0.5 °C -0.2 °C 1026.3 hPa Calm     95 % 0.0 mm 0.0 W/m2 CLR
18:23 0.5 °C -0.2 °C 1026.3 hPa Calm     95 % 0.0 mm 0.0 W/m2 CLR
18:28 0.5 °C -0.2 °C 1026.3 hPa Calm     95 % 0.0 mm 0.0 W/m2 CLR
18:33 0.4 °C -0.3 °C 1026.3 hPa Calm     95 % 0.0 mm 0.0 W/m2 CLR
18:38 0.4 °C -0.2 °C 1026.3 hPa Calm     96 % 0.0 mm 0.0 W/m2 CLR
18:43 0.3 °C -0.2 °C 1026.3 hPa Calm     96 % 0.0 mm 0.0 W/m2 CLR
18:48 0.4 °C -0.2 °C 1026.3 hPa Calm     96 % 0.0 mm 0.0 W/m2 CLR
18:53 0.4 °C -0.2 °C 1026.3 hPa Calm     96 % 0.0 mm 0.0 W/m2 CLR
18:58 0.4 °C -0.1 °C 1026.3 hPa Calm     96 % 0.0 mm 0.0 W/m2 CLR
19:03 0.4 °C -0.3 °C 1026.3 hPa Calm     95 % 0.0 mm 0.0 W/m2 CLR
19:08 0.4 °C -0.1 °C 1026.3 hPa Calm     96 % 0.0 mm 0.0 W/m2 CLR
19:13 0.4 °C -0.3 °C 1026.3 hPa Calm     95 % 0.0 mm 0.0 W/m2 CLR
19:18 0.4 °C -0.1 °C 1026.3 hPa Calm     96 % 0.0 mm 0.0 W/m2 CLR
19:23 0.4 °C -0.1 °C 1026.3 hPa Calm     96 % 0.0 mm 0.0 W/m2 CLR
19:28 0.4 °C -0.2 °C 1026.3 hPa Calm     96 % 0.0 mm 0.0 W/m2 CLR
19:33 0.4 °C -0.1 °C 1026.3 hPa Calm     96 % 0.0 mm 0.0 W/m2 CLR
19:38 0.4 °C -0.1 °C 1026.3 hPa Calm     96 % 0.0 mm 0.0 W/m2 CLR
19:43 0.4 °C -0.1 °C 1026.3 hPa Calm     96 % 0.0 mm 0.0 W/m2 CLR
19:48 0.5 °C -0.1 °C 1026.3 hPa Calm     96 % 0.0 mm 0.0 W/m2 CLR
19:54 0.5 °C -0.1 °C 1026.3 hPa Calm     96 % 0.0 mm 0.0 W/m2 CLR
19:59 0.5 °C -0.1 °C 1026.3 hPa Calm     96 % 0.0 mm 0.0 W/m2 CLR
20:04 0.6 °C 0.0 °C 1026.3 hPa Calm     96 % 0.0 mm 0.0 W/m2 CLR
20:09 0.6 °C 0.0 °C 1026.6 hPa Calm     96 % 0.0 mm 0.0 W/m2 CLR
20:14 0.5 °C -0.1 °C 1026.6 hPa Calm     96 % 0.0 mm 0.0 W/m2 CLR
20:19 0.5 °C -0.1 °C 1026.6 hPa Calm     96 % 0.0 mm 0.0 W/m2 CLR
20:24 0.5 °C -0.1 °C 1026.6 hPa Calm     96 % 0.0 mm 0.0 W/m2 CLR
20:29 0.6 °C 0.0 °C 1026.6 hPa Calm     96 % 0.0 mm 0.0 W/m2 CLR
20:34 0.6 °C 0.0 °C 1026.6 hPa Calm     96 % 0.0 mm 0.0 W/m2 CLR
20:39 0.6 °C -0.1 °C 1026.6 hPa Calm     95 % 0.0 mm 0.0 W/m2 CLR
20:44 0.6 °C 0.0 °C 1026.6 hPa Calm     96 % 0.0 mm 0.0 W/m2 CLR
20:49 0.6 °C 0.1 °C 1026.6 hPa Calm     96 % 0.0 mm 0.0 W/m2 CLR
20:54 0.7 °C 0.1 °C 1026.6 hPa Calm     96 % 0.0 mm 0.0 W/m2 CLR
20:59 0.7 °C 0.1 °C 1027.0 hPa Calm     96 % 0.0 mm 0.0 W/m2 CLR
21:04 0.7 °C 0.1 °C 1027.0 hPa Calm     96 % 0.0 mm 0.0 W/m2 CLR
21:09 0.6 °C 0.1 °C 1027.0 hPa Calm     96 % 0.0 mm 0.0 W/m2 CLR
21:14 0.7 °C 0.1 °C 1027.0 hPa Calm     96 % 0.0 mm 0.0 W/m2 CLR
21:19 0.6 °C 0.1 °C 1027.0 hPa Calm     96 % 0.0 mm 0.0 W/m2 CLR
21:24 0.6 °C 0.1 °C 1027.0 hPa Calm     96 % 0.0 mm 0.0 W/m2 CLR
21:29 0.6 °C 0.0 °C 1027.0 hPa Calm     96 % 0.0 mm 0.0 W/m2 CLR
21:34 0.6 °C 0.0 °C 1027.0 hPa Calm     96 % 0.0 mm 0.0 W/m2 CLR
21:39 0.5 °C -0.1 °C 1027.0 hPa Calm     96 % 0.0 mm 0.0 W/m2 CLR
21:44 0.6 °C 0.0 °C 1027.0 hPa Calm     96 % 0.0 mm 0.0 W/m2 CLR
21:49 0.6 °C 0.0 °C 1027.0 hPa Calm     96 % 0.0 mm 0.0 W/m2 CLR
21:54 0.6 °C -0.1 °C 1027.0 hPa Calm     95 % 0.0 mm 0.0 W/m2 CLR
21:59 0.6 °C 0.0 °C 1026.6 hPa Calm     96 % 0.0 mm 0.0 W/m2 CLR
22:04 0.6 °C 0.1 °C 1026.6 hPa Calm     96 % 0.0 mm 0.0 W/m2 CLR
22:09 0.6 °C 0.0 °C 1027.0 hPa Calm     96 % 0.0 mm 0.0 W/m2 CLR
22:14 0.6 °C -0.1 °C 1027.0 hPa Calm     95 % 0.0 mm 0.0 W/m2 CLR
22:19 0.6 °C 0.0 °C 1026.6 hPa Calm     96 % 0.0 mm 0.0 W/m2 CLR
22:24 0.5 °C -0.1 °C 1026.6 hPa Calm     96 % 0.0 mm 0.0 W/m2 CLR
22:29 0.5 °C -0.1 °C 1026.6 hPa Calm     96 % 0.0 mm 0.0 W/m2 CLR
22:34 0.5 °C -0.1 °C 1026.6 hPa Calm     96 % 0.0 mm 0.0 W/m2 CLR
22:39 0.5 °C -0.1 °C 1026.6 hPa Calm     96 % 0.0 mm 0.0 W/m2 CLR
22:44 0.4 °C -0.1 °C 1026.6 hPa Calm     96 % 0.0 mm 0.0 W/m2 CLR
22:49 0.4 °C -0.1 °C 1026.6 hPa Calm     96 % 0.0 mm 0.0 W/m2 CLR
22:54 0.4 °C -0.1 °C 1026.3 hPa Calm     96 % 0.3 mm 0.0 W/m2 RA
22:59 0.4 °C -0.1 °C 1026.3 hPa Calm     96 % 0.3 mm 0.0 W/m2 CLR
23:04 0.4 °C -0.2 °C 1026.6 hPa Calm     96 % 0.3 mm 0.0 W/m2 CLR
23:09 0.3 °C -0.4 °C 1026.6 hPa Calm     95 % 0.3 mm 0.0 W/m2 CLR
23:14 0.3 °C -0.4 °C 1026.6 hPa Calm     95 % 0.3 mm 0.0 W/m2 CLR
23:19 0.3 °C -0.4 °C 1026.6 hPa Calm     95 % 0.3 mm 0.0 W/m2 CLR
23:24 0.3 °C -0.4 °C 1026.6 hPa Calm     95 % 0.3 mm 0.0 W/m2 CLR
23:29 0.3 °C -0.4 °C 1026.6 hPa Calm     95 % 0.3 mm 0.0 W/m2 CLR
23:34 0.3 °C -0.4 °C 1026.6 hPa Calm     95 % 0.3 mm 0.0 W/m2 CLR
23:39 0.2 °C -0.5 °C 1026.6 hPa Calm     95 % 0.3 mm 0.0 W/m2 CLR
23:44 0.3 °C -0.4 °C 1027.0 hPa Calm     95 % 0.3 mm 0.0 W/m2 CLR
23:49 0.3 °C -0.4 °C 1027.0 hPa Calm     95 % 0.3 mm 0.0 W/m2 CLR
23:54 0.3 °C -0.4 °C 1027.0 hPa Calm     95 % 0.0 mm 0.0 W/m2 CLR
23:59 0.3 °C -0.4 °C 1027.0 hPa Calm     95 % 0.0 mm 0.0 W/m2 CLR
Lo Temps de Massalio
Compliments of Weather Underground - 1.25 mb